Torna al catalogo

NEXSAT-1

AttivoScienzaSSO
NORAD 58921·PAYLOAD·🇪🇬 Egypt

Lanciato Feb 3, 2024 da South China Sea Launch Area

Loading…

Prossimi Passaggi (prossime 24 ore)

TLE

AggiornatoSource: Space-Track

Epoca: Sep 14, 2026, 22:14 UTC

1 58921U 24024E   26257.92640872  .00006465  00000-0  19524-3 0  9992
2 58921  97.2975 330.9987 0009114 146.8121 213.3696 15.34558054145654

Traccia NEXSAT-1 in tempo reale con AllMySat

Download on the App Store